SL-6 R/B(2), 12384

Orbit data source: Space-Track

SL-6 R/B(2), 12384 is space debris in HEO originally from a launch on Tue, 31 Mar 1981 UTC launched from the Plesetsk Missile And Space Complex (PKMTR). Debris objects in space refer to the collection of defunct objects orbiting the Earth. Examples of debris include non-operational satellites, rocket bodies, and fragments generated from explosions, collisions, or faulty payload assembly.

Loading next visibility...
Identifier
12384, 1981-031D
Orbit
HEO
Country
Flag of CISCIS
Related business
Manufacturer
NPO Energiya
Mission
Spacecraft
Bus & Motor
BLOK-L, Unknown motor
Mass
~900 kg wet, ~900 kg dry
Launch date (UTC)
1981-03-31 (45 years ago)
Launch vehicle
Unknown
Launch site
Plesetsk Missile And Space Complex (PKMTR)
Object type
Payload
Rocket body
Debris
Shape & HBR
Unknown
Radar Cross Section
Large (>1 m²)

Expand to show TLE details & history
Last TLE update: 15 hours ago

TLE from 15 hours ago
0 SL-6 R/B(2)
1 12384U 81031D   26132.66308587 -.00000073  00000-0  00000-0 0  9999
2 12384  67.8823  72.1126 6124275 359.7770 359.9155  2.03532687335394
Epoch: 2026-05-12T15:54Z
TLE epoch observation values (Epoch: 2026-05-12T15:54:50.619Z)
Latitude
0.00042°
Longitude
-37.03888°
Altitude
3,799.773 km
Speed
7.949 km/s
True Right ascension
04h 48m 25s
True Declination
0° 00' 01"
Sunlit
Object was in daylight at epoch
Visualization orbit readout
Latitude
Unknown
Longitude
Unknown
Altitude
Unknown
Speed
Unknown
Apparent Right ascension
Unknown
Apparent Declination
Unknown
Sunlit
N/A
Visualization observer readout
Local Sidereal Time
15:25:40
Azimuth
Unknown
Elevation
Unknown
Doppler factor
Unknown
Orbital elements
Apogee altitude
36,029.438 km
Perigee altitude
3,815.196 km
Semi-major axis
26,300.454 km
Eccentricity
0.61243
Inclination
67.8823°
RAAN
72.1126°
Arg. of periapsis
359.777°
True anomaly
359.5553°
Mean anomaly
359.9155°
Eccentric anomaly
359.78198°
Mean motion
0.50886 °/min
Orbital period
707.46 mins
BSTAR
0
Loading maneuver chart data...
Computing Atmospheric mass density...
Loading historical data...
Loading historical data...
Loading historical data...
Loading historical data...
Loading historical data...
Loading historical data...
Loading historical data...

Documentation

Showing up to 5 results
|